Location: Newark
(33.2833°N, 8.3333°W)
Time: 08:27:33
(UTC+00:00)

Hubble Space Telescope - Pass Details

Date: 17 September 2019
Orbit: 536 x 540 km, 28.5° (Epoch: 17 October)

Event Time Altitude Azimuth Distance (km) Brightness Sun altitude
Exits shadow 05:05:16 28° 232° (SW) 1,018 1.7 -15.8°
Maximum altitude 05:06:55 42° 181° (S) 762 1.4 -15.5°
Drops below altitude 10° 05:10:49 10° 109° (ESE) 1,781 4.3 -14.7°
Sets 05:13:09 0° 102° (ESE) 2,672 5.6 -14.2°
